| time (UTC) | temp F | wind direction | speed MPH | gust MPH | rain 1hr in | rain 24hr in | rain mn in | humidity % | barometer mb |
| 20260504205453 | 74 | 169 | 4.0 | 12.0 | 0.00 | 0.00 | 0.00 | 31 | 1007.2 |
| 20260504204956 | 74 | 141 | 5.0 | 17.0 | 0.00 | 0.00 | 0.00 | 31 | 1007.2 |
| 20260504204453 | 74 | 148 | 11.0 | 14.0 | 0.00 | 0.00 | 0.00 | 33 | 1007.3 |
| 20260504203953 | 74 | 165 | 5.0 | 12.0 | 0.00 | 0.00 | 0.00 | 32 | 1007.3 |
| 20260504203453 | 74 | 188 | 7.0 | 17.0 | 0.00 | 0.00 | 0.00 | 31 | 1007.3 |
| 20260504202953 | 74 | 194 | 9.0 | 13.0 | 0.00 | 0.00 | 0.00 | 32 | 1007.3 |
| 20260504202456 | 74 | 165 | 5.0 | 13.0 | 0.00 | 0.00 | 0.00 | 31 | 1007.3 |
| 20260504201953 | 74 | 215 | 6.0 | 14.0 | 0.00 | 0.00 | 0.00 | 31 | 1007.3 |
| 20260504201453 | 73 | 141 | 6.0 | 12.0 | 0.00 | 0.00 | 0.00 | 32 | 1007.3 |
| 20260504200953 | 73 | 159 | 6.0 | 18.0 | 0.00 | 0.00 | 0.00 | 31 | 1007.3 |
| 20260504200453 | 73 | 163 | 3.0 | 12.0 | 0.00 | 0.00 | 0.00 | 32 | 1007.3 |
| 20260504195953 | 73 | 180 | 7.0 | 13.0 | 0.00 | 0.00 | 0.00 | 32 | 1007.7 |
| 20260504195453 | 73 | 135 | 3.0 | 12.0 | 0.00 | 0.00 | 0.00 | 30 | 1007.7 |
| 20260504194953 | 73 | 181 | 8.0 | 12.0 | 0.00 | 0.00 | 0.00 | 32 | 1007.7 |
| 20260504194453 | 73 | 180 | 7.0 | 17.0 | 0.00 | 0.00 | 0.00 | 31 | 1007.7 |
| 20260504193953 | 73 | 178 | 3.0 | 13.0 | 0.00 | 0.00 | 0.00 | 33 | 1007.7 |
| 20260504193456 | 73 | 194 | 4.0 | 10.0 | 0.00 | 0.00 | 0.00 | 33 | 1007.7 |
| 20260504192953 | 73 | 174 | 4.0 | 15.0 | 0.00 | 0.00 | 0.00 | 32 | 1008.1 |
| 20260504192453 | 73 | 170 | 5.0 | 13.0 | 0.00 | 0.00 | 0.00 | 30 | 1008.1 |
| 20260504191953 | 74 | 190 | 5.0 | 15.0 | 0.00 | 0.00 | 0.00 | 30 | 1008.1 |
| 20260504191453 | 74 | 208 | 3.0 | 14.0 | 0.00 | 0.00 | 0.00 | 31 | 1008.1 |
| 20260504190953 | 74 | 220 | 3.0 | 13.0 | 0.00 | 0.00 | 0.00 | 32 | 1008.1 |
| 20260504190453 | 74 | 144 | 5.0 | 15.0 | 0.00 | 0.00 | 0.00 | 31 | 1008.1 |
| 20260504185953 | 74 | 188 | 7.0 | 9.0 | 0.00 | 0.00 | 0.00 | 32 | 1008.3 |
| 20260504185453 | 74 | 177 | 4.0 | 16.0 | 0.00 | 0.00 | 0.00 | 31 | 1008.3 |
| 20260504184953 | 74 | 195 | 6.0 | 7.0 | 0.00 | 0.00 | 0.00 | 33 | 1008.3 |
| 20260504184453 | 73 | 123 | 5.0 | 14.0 | 0.00 | 0.00 | 0.00 | 32 | 1008.7 |
| 20260504183953 | 73 | 192 | 7.0 | 13.0 | 0.00 | 0.00 | 0.00 | 32 | 1008.7 |
| 20260504183453 | 73 | 338 | 2.0 | 15.0 | 0.00 | 0.00 | 0.00 | 31 | 1008.7 |
| 20260504182956 | 73 | 155 | 3.0 | 11.0 | 0.00 | 0.00 | 0.00 | 33 | 1008.7 |
| 20260504182453 | 73 | 163 | 2.0 | 12.0 | 0.00 | 0.00 | 0.00 | 33 | 1008.7 |
| 20260504181953 | 73 | 157 | 4.0 | 10.0 | 0.00 | 0.00 | 0.00 | 33 | 1008.7 |
| 20260504181456 | 73 | 188 | 5.0 | 13.0 | 0.00 | 0.00 | 0.00 | 33 | 1008.8 |
| 20260504180953 | 73 | 154 | 8.0 | 14.0 | 0.00 | 0.00 | 0.00 | 34 | 1008.8 |
| 20260504180453 | 73 | 191 | 7.0 | 15.0 | 0.00 | 0.00 | 0.00 | 33 | 1008.8 |
| 20260504175953 | 73 | 153 | 12.0 | 14.0 | 0.00 | 0.00 | 0.00 | 35 | 1009.2 |
| 20260504175456 | 73 | 193 | 7.0 | 14.0 | 0.00 | 0.00 | 0.00 | 33 | 1009.2 |
| 20260504174953 | 73 | 214 | 8.0 | 12.0 | 0.00 | 0.00 | 0.00 | 34 | 1009.2 |
| 20260504174453 | 73 | 206 | 6.0 | 10.0 | 0.00 | 0.00 | 0.00 | 35 | 1009.2 |
| 20260504173953 | 73 | 187 | 9.0 | 14.0 | 0.00 | 0.00 | 0.00 | 34 | 1009.2 |
| 20260504173453 | 73 | 163 | 8.0 | 12.0 | 0.00 | 0.00 | 0.00 | 34 | 1009.2 |
| 20260504172953 | 73 | 205 | 6.0 | 11.0 | 0.00 | 0.00 | 0.00 | 33 | 1009.3 |
| 20260504172453 | 73 | 206 | 5.0 | 10.0 | 0.00 | 0.00 | 0.00 | 35 | 1009.3 |
| 20260504171953 | 74 | 188 | 7.0 | 11.0 | 0.00 | 0.00 | 0.00 | 32 | 1009.3 |
| 20260504171453 | 74 | 172 | 9.0 | 9.0 | 0.00 | 0.00 | 0.00 | 34 | 1009.6 |
| 20260504170953 | 74 | 190 | 7.0 | 13.0 | 0.00 | 0.00 | 0.00 | 35 | 1009.6 |
| 20260504170453 | 74 | 227 | 4.0 | 14.0 | 0.00 | 0.00 | 0.00 | 33 | 1009.6 |
| 20260504150953 | 68 | 195 | 1.0 | 9.0 | 0.00 | 0.00 | 0.00 | 46 | 1011.1 |
| 20260504150452 | 67 | 181 | 5.0 | 9.0 | 0.00 | 0.00 | 0.00 | 46 | 1011.1 |
| 20260504140953 | 64 | 182 | 6.0 | 10.0 | 0.00 | 0.00 | 0.00 | 53 | 1011.3 |
| 20260504140452 | 63 | 193 | 7.0 | 11.0 | 0.00 | 0.00 | 0.00 | 51 | 1011.3 |
| 20260504130452 | 60 | 194 | 7.0 | 10.0 | 0.00 | 0.00 | 0.00 | 59 | 1011.5 |
| 20260504110452 | 50 | 165 | 2.0 | 8.0 | 0.00 | 0.00 | 0.00 | 75 | 1012.4 |
| 20260504100452 | 46 | 190 | 3.0 | 7.0 | 0.00 | 0.00 | 0.00 | 76 | 1012.4 |
| 20260504081952 | 44 | 172 | 0.0 | 0.0 | 0.00 | 0.00 | 0.00 | 76 | 1012.0 |
| 20260504081455 | 44 | 172 | 0.0 | 0.0 | 0.00 | 0.00 | 0.00 | 75 | 1012.1 |
| 20260504080952 | 44 | 172 | 0.0 | 0.0 | 0.00 | 0.00 | 0.00 | 74 | 1012.1 |
| 20260504080452 | 44 | 172 | 0.0 | 0.0 | 0.00 | 0.00 | 0.00 | 74 | 1012.1 |
| 20260504050451 | 52 | 184 | 1.0 | 3.0 | 0.00 | 0.00 | 0.00 | 52 | 1011.8 |
| 20260504045951 | 52 | 180 | 2.0 | 3.0 | 0.00 | 0.00 | 0.00 | 51 | 1011.6 |
| 20260504045451 | 52 | 168 | 0.0 | 3.0 | 0.00 | 0.00 | 0.00 | 51 | 1011.6 |
| 20260504044951 | 52 | 167 | 3.0 | 3.0 | 0.00 | 0.00 | 0.00 | 51 | 1011.6 |
| 20260504044451 | 53 | 148 | 1.0 | 3.0 | 0.00 | 0.00 | 0.00 | 51 | 1011.4 |
| 20260504043951 | 53 | 178 | 0.0 | 3.0 | 0.00 | 0.00 | 0.00 | 50 | 1011.4 |
| 20260504043451 | 53 | 169 | 1.0 | 4.0 | 0.00 | 0.00 | 0.00 | 50 | 1011.4 |
| 20260504042951 | 53 | 169 | 2.0 | 3.0 | 0.00 | 0.00 | 0.00 | 50 | 1011.3 |
| 20260504042454 | 53 | 178 | 0.0 | 3.0 | 0.00 | 0.00 | 0.00 | 49 | 1011.3 |
| 20260504041951 | 53 | 182 | 2.0 | 4.0 | 0.00 | 0.00 | 0.00 | 48 | 1011.3 |
| 20260504041454 | 53 | 167 | 2.0 | 3.0 | 0.00 | 0.00 | 0.00 | 47 | 1011.3 |
| 20260504040951 | 54 | 184 | 0.0 | 3.0 | 0.00 | 0.00 | 0.00 | 47 | 1011.3 |
| 20260504040451 | 54 | 156 | 2.0 | 5.0 | 0.00 | 0.00 | 0.00 | 46 | 1011.3 |
| 20260504035951 | 54 | 204 | 2.0 | 5.0 | 0.00 | 0.00 | 0.00 | 46 | 1011.1 |
| 20260504035451 | 54 | 169 | 2.0 | 4.0 | 0.00 | 0.00 | 0.00 | 46 | 1011.1 |
| 20260504034951 | 54 | 198 | 4.0 | 5.0 | 0.00 | 0.00 | 0.00 | 45 | 1011.1 |
| 20260504034451 | 54 | 185 | 1.0 | 6.0 | 0.00 | 0.00 | 0.00 | 45 | 1011.1 |
| 20260504033951 | 54 | 200 | 2.0 | 4.0 | 0.00 | 0.00 | 0.00 | 45 | 1011.1 |
| 20260504033451 | 54 | 186 | 3.0 | 6.0 | 0.00 | 0.00 | 0.00 | 44 | 1011.1 |
| 20260504032951 | 54 | 205 | 3.0 | 5.0 | 0.00 | 0.00 | 0.00 | 44 | 1011.0 |
| 20260504032451 | 54 | 205 | 4.0 | 5.0 | 0.00 | 0.00 | 0.00 | 44 | 1011.0 |
| 20260504031951 | 54 | 188 | 2.0 | 8.0 | 0.00 | 0.00 | 0.00 | 44 | 1011.0 |
| 20260504031451 | 54 | 188 | 6.0 | 7.0 | 0.00 | 0.00 | 0.00 | 44 | 1011.0 |
| 20260504030951 | 54 | 187 | 2.0 | 4.0 | 0.00 | 0.00 | 0.00 | 44 | 1011.0 |
| 20260504030454 | 54 | 190 | 3.0 | 4.0 | 0.00 | 0.00 | 0.00 | 44 | 1011.0 |
| 20260504025951 | 54 | 177 | 2.0 | 5.0 | 0.00 | 0.00 | 0.00 | 44 | 1011.0 |
| 20260504025451 | 54 | 187 | 2.0 | 8.0 | 0.00 | 0.00 | 0.00 | 44 | 1011.0 |
| 20260504024951 | 54 | 190 | 2.0 | 6.0 | 0.00 | 0.00 | 0.00 | 44 | 1011.0 |
| 20260504024454 | 55 | 205 | 3.0 | 4.0 | 0.00 | 0.00 | 0.00 | 44 | 1011.0 |
| 20260504023951 | 55 | 183 | 2.0 | 4.0 | 0.00 | 0.00 | 0.00 | 44 | 1011.0 |
| 20260504023451 | 55 | 192 | 1.0 | 5.0 | 0.00 | 0.00 | 0.00 | 44 | 1011.0 |
| 20260504022951 | 55 | 186 | 2.0 | 4.0 | 0.00 | 0.00 | 0.00 | 44 | 1010.9 |
| 20260504022454 | 54 | 192 | 2.0 | 4.0 | 0.00 | 0.00 | 0.00 | 43 | 1010.9 |
| 20260504021951 | 55 | 207 | 2.0 | 5.0 | 0.00 | 0.00 | 0.00 | 43 | 1010.9 |
| 20260504021454 | 55 | 186 | 1.0 | 4.0 | 0.00 | 0.00 | 0.00 | 44 | 1010.9 |
| 20260504020951 | 55 | 193 | 0.0 | 4.0 | 0.00 | 0.00 | 0.00 | 43 | 1010.9 |
| 20260504020451 | 55 | 188 | 2.0 | 6.0 | 0.00 | 0.00 | 0.00 | 43 | 1010.9 |
| 20260504015951 | 55 | 182 | 1.0 | 6.0 | 0.00 | 0.00 | 0.00 | 43 | 1010.8 |
| 20260504015451 | 55 | 174 | 1.0 | 3.0 | 0.00 | 0.00 | 0.00 | 43 | 1010.8 |
| 20260504014954 | 56 | 164 | 0.0 | 2.0 | 0.00 | 0.00 | 0.00 | 43 | 1010.8 |
| 20260504014451 | 56 | 170 | 2.0 | 4.0 | 0.00 | 0.00 | 0.00 | 42 | 1010.6 |
| 20260504013954 | 56 | 173 | 2.0 | 2.0 | 0.00 | 0.00 | 0.00 | 42 | 1010.6 |
| 20260504013451 | 56 | 179 | 1.0 | 4.0 | 0.00 | 0.00 | 0.00 | 41 | 1010.6 |
| 20260504012951 | 56 | 208 | 0.0 | 0.0 | 0.00 | 0.00 | 0.00 | 41 | 1010.4 |
| 20260504012451 | 57 | 173 | 0.0 | 0.0 | 0.00 | 0.00 | 0.00 | 41 | 1010.4 |
| 20260504011951 | 57 | 190 | 0.0 | 1.0 | 0.00 | 0.00 | 0.00 | 40 | 1010.4 |
| 20260504011454 | 57 | 190 | 0.0 | 2.0 | 0.00 | 0.00 | 0.00 | 40 | 1010.3 |
| 20260504010951 | 57 | 190 | 1.0 | 3.0 | 0.00 | 0.00 | 0.00 | 39 | 1010.3 |
| 20260504010451 | 57 | 180 | 1.0 | 3.0 | 0.00 | 0.00 | 0.00 | 38 | 1010.3 |
| 20260504005951 | 57 | 197 | 1.0 | 3.0 | 0.00 | 0.00 | 0.00 | 38 | 1010.1 |
| 20260504005451 | 57 | 202 | 2.0 | 2.0 | 0.00 | 0.00 | 0.00 | 37 | 1010.1 |
| 20260504004951 | 58 | 194 | 1.0 | 4.0 | 0.00 | 0.00 | 0.00 | 37 | 1010.1 |
| 20260504004451 | 58 | 174 | 2.0 | 3.0 | 0.00 | 0.00 | 0.00 | 37 | 1009.9 |
| 20260504003951 | 58 | 240 | 1.0 | 4.0 | 0.00 | 0.00 | 0.00 | 36 | 1009.9 |
| 20260504003451 | 58 | 196 | 2.0 | 5.0 | 0.00 | 0.00 | 0.00 | 36 | 1009.9 |
| 20260504002951 | 58 | 205 | 2.0 | 6.0 | 0.00 | 0.00 | 0.00 | 36 | 1009.8 |
| 20260504002451 | 58 | 183 | 2.0 | 6.0 | 0.00 | 0.00 | 0.00 | 35 | 1009.8 |
| 20260504001951 | 59 | 198 | 2.0 | 3.0 | 0.00 | 0.00 | 0.00 | 36 | 1009.8 |
| 20260504001451 | 59 | 207 | 2.0 | 5.0 | 0.00 | 0.00 | 0.00 | 35 | 1009.6 |
| 20260504000951 | 59 | 209 | 3.0 | 4.0 | 0.00 | 0.00 | 0.00 | 34 | 1009.6 |
| 20260504000451 | 59 | 216 | 0.0 | 3.0 | 0.00 | 0.00 | 0.00 | 34 | 1009.6 |
| 20260503235951 | 59 | 233 | 1.0 | 6.0 | 0.00 | 0.00 | 0.00 | 34 | 1009.4 |
| 20260503235451 | 59 | 247 | 2.0 | 5.0 | 0.00 | 0.00 | 0.00 | 33 | 1009.4 |
| 20260503234951 | 60 | 229 | 2.0 | 7.0 | 0.00 | 0.00 | 0.00 | 34 | 1009.4 |
| 20260503234451 | 60 | 159 | 1.0 | 6.0 | 0.00 | 0.00 | 0.00 | 33 | 1009.3 |
| 20260503233951 | 60 | 225 | 3.0 | 7.0 | 0.00 | 0.00 | 0.00 | 33 | 1009.3 |
| 20260503233454 | 60 | 284 | 5.0 | 11.0 | 0.00 | 0.00 | 0.00 | 34 | 1009.3 |
| 20260503232951 | 60 | 296 | 2.0 | 8.0 | 0.00 | 0.00 | 0.00 | 32 | 1009.3 |
| 20260503232451 | 60 | 286 | 6.0 | 8.0 | 0.00 | 0.00 | 0.00 | 32 | 1009.3 |
| 20260503231951 | 60 | 209 | 3.0 | 7.0 | 0.00 | 0.00 | 0.00 | 32 | 1009.3 |
| 20260503231451 | 60 | 257 | 4.0 | 11.0 | 0.00 | 0.00 | 0.00 | 31 | 1009.0 |
| 20260503230954 | 61 | 242 | 1.0 | 6.0 | 0.00 | 0.00 | 0.00 | 32 | 1009.0 |
| 20260503230454 | 61 | 265 | 4.0 | 6.0 | 0.00 | 0.00 | 0.00 | 31 | 1009.0 |
| 20260503225951 | 61 | 217 | 1.0 | 8.0 | 0.00 | 0.00 | 0.00 | 31 | 1009.2 |
| 20260503225451 | 61 | 287 | 3.0 | 7.0 | 0.00 | 0.00 | 0.00 | 31 | 1009.2 |
| 20260503224951 | 61 | 259 | 2.0 | 10.0 | 0.00 | 0.00 | 0.00 | 31 | 1009.2 |
| 20260503224451 | 61 | 273 | 8.0 | 11.0 | 0.00 | 0.00 | 0.00 | 30 | 1009.0 |
| 20260503223951 | 61 | 269 | 13.0 | 17.0 | 0.00 | 0.00 | 0.00 | 31 | 1009.0 |
| 20260503223454 | 61 | 311 | 2.0 | 10.0 | 0.00 | 0.00 | 0.00 | 31 | 1009.0 |
| 20260503222951 | 61 | 204 | 3.0 | 13.0 | 0.00 | 0.00 | 0.00 | 30 | 1008.9 |
| 20260503222451 | 61 | 225 | 4.0 | 11.0 | 0.00 | 0.00 | 0.00 | 31 | 1008.9 |
| 20260503221951 | 61 | 209 | 3.0 | 12.0 | 0.00 | 0.00 | 0.00 | 32 | 1008.9 |
| 20260503221451 | 61 | 269 | 5.0 | 13.0 | 0.00 | 0.00 | 0.00 | 30 | 1008.9 |
| 20260503220951 | 61 | 290 | 6.0 | 13.0 | 0.00 | 0.00 | 0.00 | 30 | 1008.9 |
| 20260503220453 | 61 | 263 | 11.0 | 15.0 | 0.00 | 0.00 | 0.00 | 30 | 1008.9 |
| 20260503215951 | 61 | 281 | 8.0 | 12.0 | 0.00 | 0.00 | 0.00 | 31 | 1009.3 |
| 20260503215451 | 61 | 262 | 7.0 | 12.0 | 0.00 | 0.00 | 0.00 | 30 | 1009.3 |
| 20260503214951 | 61 | 243 | 4.0 | 19.0 | 0.00 | 0.00 | 0.00 | 30 | 1009.3 |
| 20260503214453 | 61 | 270 | 8.0 | 14.0 | 0.00 | 0.00 | 0.00 | 31 | 1009.0 |
| 20260503213951 | 61 | 261 | 6.0 | 15.0 | 0.00 | 0.00 | 0.00 | 30 | 1009.0 |
| 20260503213450 | 61 | 233 | 7.0 | 12.0 | 0.00 | 0.00 | 0.00 | 32 | 1009.0 |
| 20260503212950 | 61 | 196 | 5.0 | 9.0 | 0.00 | 0.00 | 0.00 | 31 | 1009.1 |
| 20260503212450 | 61 | 329 | 9.0 | 16.0 | 0.00 | 0.00 | 0.00 | 29 | 1009.1 |
| 20260503211951 | 61 | 284 | 5.0 | 18.0 | 0.00 | 0.00 | 0.00 | 31 | 1009.1 |
| 20260503211450 | 61 | 193 | 5.0 | 10.0 | 0.00 | 0.00 | 0.00 | 30 | 1008.9 |
| 20260503210950 | 61 | 284 | 8.0 | 14.0 | 0.00 | 0.00 | 0.00 | 32 | 1008.9 |
| 20260503210453 | 61 | 269 | 8.0 | 16.0 | 0.00 | 0.00 | 0.00 | 31 | 1008.9 |
| 20260503205950 | 61 | 310 | 12.0 | 14.0 | 0.00 | 0.00 | 0.00 | 31 | 1009.3 |